�������l�o���
Date,Time,MP-1(��Sv/h),MP-2(��Sv/h),MP-3(��Sv/h),MP-4(��Sv/h),MP-5(��Sv/h),MP-6(��Sv/h),MP-7(��Sv/h),MP-8(��Sv/h),����,����(m/s),���J
2020/06/27,00:00,0.665,0.942,0.615,1.155,0.831,0.389,0.674,0.633,�k�k��,0.9,��
2020/06/27,00:10,0.667,0.943,0.614,1.154,0.832,0.388,0.674,0.632,�k�k��,0.9,��
2020/06/27,00:20,0.665,0.941,0.615,1.156,0.830,0.389,0.672,0.632,�k��,0.9,��
2020/06/27,00:30,0.667,0.942,0.614,1.154,0.831,0.389,0.672,0.632,�k�k��,0.6,��
2020/06/27,00:40,0.666,0.939,0.615,1.156,0.829,0.391,0.674,0.633,�k,0.9,��
2020/06/27,00:50,0.667,0.940,0.613,1.155,0.831,0.390,0.672,0.632,�k�k��,0.9,��
2020/06/27,01:00,0.668,0.942,0.613,1.158,0.829,0.387,0.672,0.632,�k,0.9,��
2020/06/27,01:10,0.665,0.940,0.615,1.158,0.832,0.389,0.673,0.632,-,CALM,��
2020/06/27,01:20,0.666,0.944,0.615,1.155,0.830,0.389,0.672,0.631,-,CALM,��
2020/06/27,01:30,0.665,0.942,0.615,1.156,0.830,0.390,0.673,0.633,�k�k��,0.9,��
2020/06/27,01:40,0.666,0.941,0.615,1.155,0.832,0.390,0.673,0.633,�k,1.2,��
2020/06/27,01:50,0.666,0.941,0.615,1.155,0.831,0.390,0.672,0.632,�k��,1.4,��
2020/06/27,02:00,0.667,0.942,0.614,1.154,0.830,0.389,0.672,0.633,���k��,1.7,��
2020/06/27,02:10,0.667,0.941,0.616,1.154,0.831,0.390,0.674,0.632,���k��,2.2,��
2020/06/27,02:20,0.668,0.943,0.614,1.153,0.831,0.388,0.675,0.634,�k��,1.1,��
2020/06/27,02:30,0.667,0.942,0.615,1.156,0.833,0.389,0.673,0.633,-,CALM,��
2020/06/27,02:40,0.668,0.941,0.615,1.156,0.832,0.389,0.673,0.633,��,0.8,��
2020/06/27,02:50,0.665,0.944,0.615,1.155,0.834,0.390,0.673,0.632,-,CALM,��
2020/06/27,03:00,0.666,0.941,0.615,1.155,0.831,0.389,0.673,0.633,��,0.6,��
2020/06/27,03:10,0.666,0.942,0.617,1.156,0.831,0.390,0.672,0.633,��,0.6,��
2020/06/27,03:20,0.667,0.941,0.616,1.156,0.833,0.391,0.672,0.633,��,1.1,��
2020/06/27,03:30,0.667,0.941,0.614,1.156,0.834,0.388,0.672,0.632,��쐼,1.7,��
2020/06/27,03:40,0.667,0.942,0.613,1.156,0.831,0.390,0.673,0.633,��쓌,1.7,��
2020/06/27,03:50,0.666,0.940,0.616,1.153,0.832,0.390,0.673,0.632,��쓌,1.7,��
2020/06/27,04:00,0.667,0.942,0.616,1.156,0.831,0.389,0.672,0.631,��,3.0,��
2020/06/27,04:10,0.667,0.942,0.615,1.154,0.832,0.390,0.675,0.633,��,2.3,��
2020/06/27,04:20,0.668,0.945,0.614,1.156,0.831,0.389,0.673,0.632,��쓌,2.9,��
2020/06/27,04:30,0.666,0.943,0.616,1.156,0.831,0.390,0.673,0.633,��,3.5,��
2020/06/27,04:40,0.665,0.942,0.613,1.156,0.833,0.389,0.674,0.633,��,3.7,��
2020/06/27,04:50,0.669,0.942,0.614,1.156,0.832,0.390,0.673,0.633,��쓌,4.2,��
2020/06/27,05:00,0.667,0.941,0.615,1.153,0.832,0.390,0.674,0.632,��,3.4,��
2020/06/27,05:10,0.668,0.944,0.615,1.155,0.833,0.390,0.675,0.632,��쓌,2.0,��
2020/06/27,05:20,0.669,0.944,0.616,1.154,0.832,0.392,0.674,0.634,��쓌,3.8,��
2020/06/27,05:30,0.668,0.942,0.614,1.154,0.832,0.390,0.673,0.632,��쓌,2.6,��
2020/06/27,05:40,0.667,0.942,0.616,1.156,0.829,0.390,0.673,0.633,���쓌,2.5,��
2020/06/27,05:50,0.667,0.944,0.614,1.155,0.831,0.389,0.673,0.632,�쓌,1.7,��
2020/06/27,06:00,0.667,0.939,0.615,1.159,0.830,0.390,0.672,0.633,�쓌,3.9,��
2020/06/27,06:10,0.667,0.941,0.616,1.157,0.833,0.389,0.672,0.633,��쓌,3.3,��
2020/06/27,06:20,0.667,0.939,0.616,1.155,0.833,0.390,0.675,0.631,-,CALM,��
2020/06/27,06:30,0.667,0.943,0.616,1.155,0.831,0.390,0.674,0.630,��쓌,4.4,��
2020/06/27,06:40,0.666,0.943,0.616,1.158,0.833,0.391,0.675,0.631,��쐼,2.0,��
2020/06/27,06:50,0.667,0.943,0.616,1.154,0.833,0.391,0.673,0.632,��쓌,3.5,��
2020/06/27,07:00,0.669,0.941,0.616,1.156,0.831,0.390,0.672,0.632,��쓌,4.0,��
2020/06/27,07:10,0.668,0.943,0.616,1.154,0.832,0.389,0.673,0.631,��,2.3,��
2020/06/27,07:20,0.667,0.942,0.618,1.157,0.831,0.390,0.674,0.631,��쓌,3.5,��
2020/06/27,07:30,0.668,0.942,0.614,1.157,0.833,0.390,0.675,0.630,��쐼,2.9,��
2020/06/27,07:40,0.669,0.945,0.617,1.158,0.834,0.390,0.674,0.633,��,2.3,��
2020/06/27,07:50,0.668,0.943,0.615,1.156,0.834,0.392,0.674,0.631,��쓌,2.6,��
2020/06/27,08:00,0.671,0.943,0.616,1.159,0.833,0.392,0.674,0.631,��,1.9,��
2020/06/27,08:10,0.671,0.944,0.620,1.158,0.831,0.393,0.675,0.633,��,6.9,��
2020/06/27,08:20,0.671,0.944,0.618,1.159,0.833,0.393,0.678,0.633,��,8.2,��
2020/06/27,08:30,0.671,0.946,0.619,1.159,0.835,0.394,0.676,0.633,��,7.1,��
2020/06/27,08:40,0.670,0.944,0.619,1.160,0.836,0.394,0.677,0.631,���k��,5.4,��
2020/06/27,08:50,0.671,0.949,0.619,1.159,0.834,0.394,0.677,0.631,���k��,5.4,��
2020/06/27,09:00,0.673,0.945,0.619,1.159,0.834,0.394,0.679,0.631,���k��,5.9,��
2020/06/27,09:10,0.674,0.948,0.619,1.160,0.836,0.394,0.678,0.632,���k��,6.7,��
2020/06/27,09:20,0.675,0.948,0.619,1.164,0.839,0.395,0.679,0.632,�k��,8.5,��
2020/06/27,09:30,0.674,0.947,0.620,1.162,0.834,0.395,0.680,0.633,���k��,7.6,��
2020/06/27,09:40,0.676,0.949,0.619,1.162,0.836,0.395,0.678,0.634,���k��,6.6,��
2020/06/27,09:50,0.676,0.949,0.620,1.165,0.839,0.395,0.679,0.630,�k��,5.6,��
2020/06/27,10:00,0.676,0.950,0.620,1.164,0.838,0.395,0.678,0.632,���k��,5.2,��
2020/06/27,10:10,0.677,0.951,0.620,1.164,0.839,0.394,0.679,0.633,���쐼,1.7,��
2020/06/27,10:20,0.677,0.951,0.621,1.166,0.836,0.395,0.679,0.632,�쐼,1.9,��
2020/06/27,10:30,0.676,0.954,0.621,1.167,0.838,0.395,0.680,0.633,�쐼,2.0,��
2020/06/27,10:40,0.675,0.951,0.621,1.164,0.838,0.394,0.680,0.634,���쐼,1.7,��
2020/06/27,10:50,0.678,0.951,0.621,1.165,0.840,0.395,0.681,0.634,��쐼,0.9,��
2020/06/27,11:00,0.677,0.951,0.622,1.165,0.840,0.395,0.680,0.632,��쐼,0.9,��
2020/06/27,11:10,0.677,0.955,0.623,1.166,0.840,0.396,0.680,0.635,�쐼,2.0,��
2020/06/27,11:20,0.677,0.953,0.624,1.166,0.841,0.395,0.680,0.634,�쐼,1.2,��
2020/06/27,11:30,0.677,0.954,0.622,1.167,0.840,0.396,0.681,0.633,��쓌,0.6,��
2020/06/27,11:40,0.679,0.953,0.623,1.167,0.841,0.395,0.679,0.634,���k��,1.2,��
2020/06/27,11:50,0.678,0.952,0.623,1.166,0.840,0.395,0.679,0.632,���k��,2.2,��
2020/06/27,12:00,0.676,0.954,0.624,1.166,0.842,0.394,0.679,0.633,���쐼,1.5,��
2020/06/27,12:10,0.679,0.955,0.623,1.167,0.840,0.395,0.679,0.633,�k��,0.6,��
2020/06/27,12:20,0.676,0.956,0.622,1.166,0.844,0.396,0.680,0.634,�k�k��,0.8,��
2020/06/27,12:30,0.677,0.957,0.622,1.170,0.845,0.395,0.679,0.634,-,CALM,��
2020/06/27,12:40,0.677,0.958,0.622,1.169,0.842,0.396,0.680,0.634,�k�k��,0.8,��
2020/06/27,12:50,0.679,0.957,0.623,1.167,0.844,0.395,0.681,0.634,�k,1.4,��
2020/06/27,13:00,0.676,0.956,0.622,1.169,0.846,0.395,0.678,0.635,��,1.2,��
2020/06/27,13:10,0.678,0.956,0.624,1.169,0.843,0.395,0.682,0.635,�쓌,2.2,��
2020/06/27,13:20,0.678,0.957,0.624,1.170,0.843,0.395,0.680,0.635,��쓌,2.6,��
2020/06/27,13:30,0.678,0.957,0.624,1.167,0.845,0.397,0.681,0.635,��,4.1,��
2020/06/27,13:40,0.677,0.957,0.622,1.165,0.845,0.396,0.681,0.634,��,4.7,��
2020/06/27,13:50,0.678,0.958,0.623,1.167,0.844,0.396,0.681,0.636,��,3.8,��
2020/06/27,14:00,0.678,0.957,0.626,1.167,0.845,0.395,0.681,0.636,��,3.9,��
2020/06/27,14:10,0.678,0.958,0.624,1.166,0.845,0.397,0.681,0.635,��쓌,3.9,��
2020/06/27,14:20,0.679,0.959,0.626,1.169,0.845,0.395,0.680,0.635,��,4.1,��
2020/06/27,14:30,0.679,0.962,0.624,1.173,0.846,0.396,0.680,0.634,��,5.7,��
2020/06/27,14:40,0.679,0.961,0.627,1.171,0.846,0.397,0.681,0.634,��,5.7,��
2020/06/27,14:50,0.680,0.962,0.626,1.174,0.846,0.397,0.682,0.635,��,4.9,��
2020/06/27,15:00,0.678,0.961,0.627,1.171,0.847,0.398,0.681,0.637,��,5.8,��
2020/06/27,15:10,0.680,0.963,0.629,1.173,0.846,0.398,0.681,0.636,��,6.8,��
2020/06/27,15:20,0.680,0.963,0.629,1.171,0.846,0.400,0.682,0.637,��,5.4,��
2020/06/27,15:30,0.681,0.961,0.628,1.171,0.849,0.399,0.682,0.635,��,6.7,��
2020/06/27,15:40,0.682,0.966,0.628,1.171,0.850,0.400,0.680,0.637,��,5.7,��
2020/06/27,15:50,0.684,0.966,0.628,1.171,0.851,0.400,0.685,0.635,��,4.9,��
2020/06/27,16:00,0.682,0.965,0.628,1.173,0.849,0.400,0.680,0.636,��,5.3,��
2020/06/27,16:10,0.681,0.967,0.627,1.172,0.850,0.401,0.683,0.636,��쓌,5.9,��
2020/06/27,16:20,0.680,0.968,0.629,1.172,0.852,0.400,0.681,0.636,��,7.2,��
2020/06/27,16:30,0.680,0.969,0.629,1.173,0.851,0.402,0.683,0.637,��,6.5,��
2020/06/27,16:40,0.681,0.966,0.627,1.174,0.849,0.401,0.681,0.637,��,6.1,��
2020/06/27,16:50,0.683,0.966,0.628,1.174,0.848,0.400,0.682,0.637,��,5.3,��
2020/06/27,17:00,0.681,0.964,0.626,1.173,0.850,0.398,0.680,0.635,��,4.4,��
2020/06/27,17:10,0.682,0.967,0.628,1.174,0.851,0.399,0.681,0.635,��,4.4,��
2020/06/27,17:20,0.680,0.966,0.628,1.173,0.852,0.399,0.682,0.636,��,4.3,��
2020/06/27,17:30,0.681,0.969,0.627,1.175,0.849,0.401,0.682,0.635,��,5.8,��
2020/06/27,17:40,0.680,0.967,0.629,1.175,0.850,0.400,0.683,0.638,��쐼,4.5,��
2020/06/27,17:50,0.681,0.969,0.628,1.174,0.851,0.401,0.682,0.637,��쐼,4.7,��
2020/06/27,18:00,0.681,0.969,0.627,1.174,0.850,0.401,0.683,0.637,��,4.0,��
2020/06/27,18:10,0.681,0.969,0.627,1.175,0.851,0.400,0.681,0.638,��,6.4,��
2020/06/27,18:20,0.681,0.968,0.629,1.174,0.853,0.400,0.683,0.639,��쐼,5.5,��
2020/06/27,18:30,0.681,0.967,0.629,1.175,0.850,0.400,0.684,0.638,��,6.3,��
2020/06/27,18:40,0.679,0.967,0.630,1.173,0.850,0.399,0.683,0.638,��쐼,6.8,��
2020/06/27,18:50,0.681,0.968,0.628,1.175,0.850,0.400,0.680,0.639,��쐼,6.3,��
2020/06/27,19:00,0.681,0.969,0.627,1.173,0.850,0.398,0.683,0.639,��쐼,6.3,��
2020/06/27,19:10,0.680,0.970,0.628,1.176,0.852,0.399,0.683,0.638,��쐼,5.6,��
2020/06/27,19:20,0.682,0.968,0.629,1.176,0.849,0.400,0.682,0.637,��쐼,4.3,��
2020/06/27,19:30,0.681,0.971,0.627,1.177,0.852,0.399,0.683,0.640,�쐼,4.0,��
2020/06/27,19:40,0.682,0.970,0.629,1.177,0.852,0.400,0.684,0.637,��쐼,3.7,��
2020/06/27,19:50,0.682,0.968,0.629,1.176,0.850,0.400,0.683,0.639,��,5.5,��
2020/06/27,20:00,0.683,0.968,0.629,1.178,0.852,0.400,0.682,0.639,��,6.5,��
2020/06/27,20:10,0.679,0.967,0.630,1.177,0.850,0.400,0.684,0.638,��,6.1,��
2020/06/27,20:20,0.681,0.967,0.629,1.178,0.852,0.399,0.682,0.638,��쐼,4.8,��
2020/06/27,20:30,0.684,0.965,0.629,1.177,0.853,0.400,0.684,0.638,��쐼,4.5,��
2020/06/27,20:40,0.682,0.970,0.629,1.177,0.853,0.398,0.683,0.639,��쐼,4.7,��
2020/06/27,20:50,0.681,0.966,0.632,1.173,0.850,0.401,0.683,0.639,�쐼,3.8,��
2020/06/27,21:00,0.683,0.965,0.631,1.178,0.852,0.398,0.684,0.637,�쐼,3.6,��
2020/06/27,21:10,0.680,0.968,0.628,1.177,0.851,0.400,0.683,0.639,�쐼,3.0,��
2020/06/27,21:20,0.680,0.966,0.629,1.177,0.853,0.401,0.681,0.638,��쐼,3.3,��
2020/06/27,21:30,0.683,0.967,0.629,1.176,0.853,0.399,0.683,0.639,��쐼,2.2,��
2020/06/27,21:40,0.682,0.967,0.631,1.178,0.852,0.401,0.684,0.638,��쐼,3.4,��
2020/06/27,21:50,0.681,0.966,0.629,1.179,0.852,0.400,0.684,0.640,��쐼,2.7,��
2020/06/27,22:00,0.682,0.966,0.629,1.177,0.854,0.401,0.682,0.639,��쐼,2.6,��
2020/06/27,22:10,0.683,0.967,0.630,1.176,0.854,0.399,0.682,0.639,��쐼,3.7,��
2020/06/27,22:20,0.684,0.966,0.631,1.177,0.852,0.398,0.683,0.639,��쐼,3.6,��
2020/06/27,22:30,0.682,0.964,0.630,1.178,0.852,0.400,0.683,0.639,��쐼,3.7,��
2020/06/27,22:40,0.683,0.965,0.631,1.179,0.851,0.399,0.682,0.639,��쐼,2.9,��
2020/06/27,22:50,0.684,0.966,0.629,1.177,0.851,0.398,0.682,0.638,��쐼,1.9,��
2020/06/27,23:00,0.684,0.965,0.631,1.178,0.851,0.398,0.683,0.638,��,2.5,��
2020/06/27,23:10,0.684,0.969,0.631,1.176,0.853,0.400,0.683,0.639,��,2.6,��
2020/06/27,23:20,0.683,0.966,0.630,1.178,0.852,0.398,0.682,0.640,��,3.9,��
2020/06/27,23:30,0.683,0.966,0.629,1.176,0.852,0.399,0.681,0.640,��,4.1,��
2020/06/27,23:40,0.683,0.965,0.629,1.178,0.851,0.399,0.683,0.639,��쐼,4.7,��
2020/06/27,23:50,0.684,0.965,0.630,1.176,0.853,0.399,0.684,0.638,��쐼,4.2,��
